Location: Unnamed
(51.8936°N, 11.0665°E)
Time: 14:36:44
(UTC+02:00)

VELOX 1 - Visible Passes

Search period start: 24 September 2021 00:00
Search period end: 04 October 2021 00:00
Orbit: 626 x 643 km, 98.3° (Epoch: 24 September)

Date Brightness Start Highest point End Pass type
(mag) Time Alt. Az. Time Alt. Az. Time Alt. Az.
24 Sep ? 02:46:05 10° ENE 02:47:33 12° NE 02:49:02 10° NNE visible
24 Sep ? 04:20:55 28° SE 04:23:06 66° ENE 04:27:27 10° N visible
24 Sep ? 05:58:24 15° WSW 05:59:54 17° W 06:02:51 10° NW visible
25 Sep ? 03:06:18 10° E 03:09:04 17° NE 03:11:49 10° NNE visible
25 Sep ? 04:43:13 38° S 04:44:53 80° WSW 04:49:17 10° NNW visible
25 Sep ? 06:20:44 10° WSW 06:21:59 11° W 06:23:14 10° WNW visible
25 Sep ? 19:38:11 10° NNW 19:40:40 15° NW 19:43:09 10° W visible
26 Sep ? 03:28:01 14° ESE 03:30:37 24° ENE 03:34:07 10° N visible
26 Sep ? 05:05:31 39° SSW 05:06:43 50° W 05:11:00 10° NNW visible
26 Sep ? 20:01:26 10° NW 20:02:09 10° NW 20:02:53 10° WNW visible
27 Sep ? 03:50:20 24° ESE 03:52:15 35° ENE 03:56:14 10° N visible
27 Sep ? 05:27:49 30° WSW 05:28:38 32° W 05:32:35 10° NNW visible
28 Sep ? 04:12:39 38° ESE 04:13:55 53° ENE 04:18:12 10° N visible
28 Sep ? 05:50:07 21° WSW 05:50:35 21° W 05:53:57 10° NW visible
29 Sep ? 02:57:42 10° E 02:59:58 14° NE 03:02:15 10° NNE visible
29 Sep ? 04:34:57 61° SSE 04:35:40 83° ENE 04:40:04 10° NNW visible
29 Sep ? 06:12:26 14° W 06:12:38 14° W 06:14:52 10° WNW visible
29 Sep ? 19:28:39 10° NNW 19:31:35 18° WNW 19:34:30 10° W visible
30 Sep ? 03:19:46 16° E 03:21:30 20° ENE 03:24:42 10° NNE visible
30 Sep ? 04:57:15 62° WSW 04:57:29 63° WSW 05:01:50 10° NNW visible
30 Sep ? 19:51:17 10° NNW 19:53:06 12° NW 19:54:54 10° WNW visible
01 Oct ? 03:42:06 26° E 03:43:06 29° ENE 03:46:52 10° N visible
01 Oct ? 05:19:34 39° W 05:19:34 39° W 05:23:29 10° NNW visible
02 Oct ? 04:04:24 42° E 04:04:45 43° ENE 04:08:54 10° N visible
02 Oct ? 05:41:54 25° W 05:41:54 25° W 05:44:57 10° NW visible
03 Oct ? 02:49:18 10° ENE 02:50:53 12° NE 02:52:29 10° NNE visible
03 Oct ? 04:26:44 66° NE 04:26:44 66° NE 04:30:49 10° N visible
03 Oct ? 06:04:13 16° WNW 06:04:13 16° WNW 06:06:08 10° NW visible
03 Oct ? 19:19:10 10° N 19:22:28 21° WNW 19:25:45 10° WSW visible
